GFSFLT2_sfc_temp_078.txt.gz
Temp
48 47 46 44 44 45 45 45 47 50 51 50 50 51 51 51 52 53 53 55 55 57 59 61 64 64 64
43 41 42 44 43 43 44 45 46 49 50 50 50 50 50 50 50 51 51 51 53 53 55 57 59 61 62
41 42 41 41 39 40 40 41 44 47 48 48 48 49 49 48 48 48 49 50 50 51 52 52 55 57 59
42 40 40 40 39 37 36 39 40 45 44 45 45 45 48 47 46 46 47 48 49 50 50 51 52 53 55
40 40 39 37 36 38 38 38 40 43 47 47 47 46 46 45 44 45 45 46 47 48 49 49 49 50 51
40 39 39 39 38 37 37 36 37 46 44 44 46 44 45 46 44 44 45 45 46 46 47 47 47 48 48
40 40 39 40 39 36 38 40 44 42 43 42 44 43 44 44 42 44 45 45 45 45 46 46 46 47 47
43 43 42 41 42 43 44 44 42 41 42 37 42 41 43 44 43 44 44 44 44 45 45 45 45 45 45
41 41 42 43 44 43 39 38 36 39 39 39 38 39 41 42 44 42 43 44 44 44 44 43 42 41 42
42 42 43 42 41 44 41 36 37 35 39 35 36 38 34 39 41 41 42 41 41 41 42 41 40 44 44
41 41 41 42 41 41 41 37 35 35 38 37 34 34 35 34 38 39 40 39 40 40 37 39 40 39 41
40 39 39 39 38 38 37 37 37 34 38 35 33 35 34 33 34 37 38 39 39 39 39 39 37 38 38
38 38 38 38 35 33 33 34 34 34 34 32 33 32 33 34 34 34 35 36 37 36 37 37 38 39 37
39 39 37 34 35 35 34 34 34 33 33 31 31 31 32 33 33 34 35 33 36 36 36 36 38 39 38
38 37 36 35 34 35 34 33 33 33 32 32 32 32 33 32 31 34 36 35 35 34 33 33 36 38 38
36 36 35 33 33 32 33 33 32 33 33 33 31 30 31 33 34 33 34 33 35 33 32 31 32 37 39
35 34 33 33 33 32 31 32 32 33 33 33 31 30 28 28 33 34 32 32 33 32 33 33 32 34 37

GFSFLT2_sfc_temp_081.txt.gz
Temp
48 49 49 47 45 45 45 45 46 49 51 51 51 51 51 51 52 52 53 54 55 56 57 59 63 64 64
45 42 43 45 43 42 44 45 45 47 50 50 50 50 50 50 50 50 51 51 52 53 54 56 59 62 64
42 42 41 41 39 40 40 40 44 46 48 49 49 49 49 49 48 48 48 50 50 51 52 52 54 57 60
42 40 40 40 39 37 36 38 39 44 43 45 46 46 48 47 46 46 47 48 49 50 51 51 51 53 55
41 40 39 37 36 37 36 36 38 39 39 41 41 41 42 44 44 45 46 46 47 48 49 50 50 51 51
41 40 40 39 37 36 35 33 33 39 38 40 39 38 40 40 44 45 45 45 46 47 47 48 48 49 49
41 41 39 39 37 35 35 36 37 38 37 35 37 36 38 42 43 44 45 45 45 46 46 47 47 47 48
43 42 41 40 39 39 38 38 37 37 36 31 35 35 36 39 43 45 45 45 45 45 45 45 45 46 47
42 44 44 44 43 39 36 35 33 33 34 34 33 33 35 37 39 44 44 45 45 45 44 43 43 43 42
37 39 41 41 44 40 37 33 32 29 34 30 32 32 30 36 36 36 38 44 43 43 42 42 41 38 37
37 36 37 36 36 36 36 33 31 30 34 32 29 29 30 30 34 35 35 35 35 37 39 40 41 38 35
35 34 33 33 32 32 33 33 32 32 33 32 30 30 29 28 28 32 32 34 34 34 34 39 39 39 40
33 32 32 32 31 30 30 31 30 31 31 28 29 27 28 27 27 27 29 32 31 30 30 30 30 31 29
33 34 33 30 30 30 29 29 28 27 30 28 27 27 26 27 28 28 29 28 28 29 29 29 31 32 30
33 33 32 31 31 30 29 28 27 28 26 27 28 29 27 25 25 28 28 27 28 27 27 25 27 29 31
33 31 31 30 29 29 28 27 26 27 26 27 26 24 25 27 32 26 27 26 28 28 27 22 24 29 32
33 32 30 30 31 28 28 27 26 27 26 27 26 23 22 22 26 35 24 26 26 25 26 26 23 26 31

GFSFLT2_sfc_temp_084.txt.gz
Temp
46 46 46 45 44 45 46 45 47 50 51 51 51 51 51 51 51 52 52 53 54 56 57 57 59 63 64
44 42 43 44 43 42 44 46 45 48 50 50 50 51 50 50 50 49 50 51 52 53 54 55 56 61 64
42 42 41 41 39 40 40 40 44 47 49 50 49 49 49 49 48 48 48 49 50 51 52 52 53 56 61
42 40 40 40 39 37 36 38 39 45 45 45 47 47 49 47 47 46 47 48 49 50 51 51 51 52 55
41 40 39 37 37 37 36 36 37 38 38 40 40 41 39 44 44 45 46 47 47 48 49 50 50 51 52
40 39 39 38 37 36 35 33 33 38 36 37 39 36 35 36 45 45 45 45 46 47 48 48 49 49 50
40 40 39 38 36 35 34 34 35 37 37 34 32 32 34 40 44 44 45 45 46 46 47 47 48 48 49
42 41 39 38 39 38 37 36 35 36 36 29 30 30 31 33 44 45 45 45 45 46 46 46 46 47 47
43 45 45 45 42 38 35 34 32 33 31 30 28 29 30 32 35 45 45 45 45 45 44 44 44 44 42
35 39 41 41 45 38 36 34 32 26 29 26 27 28 23 31 32 32 34 44 45 44 43 43 42 36 35
31 31 32 32 31 34 35 34 28 22 30 27 19 23 23 24 30 31 32 33 33 36 41 41 41 39 34
30 29 28 26 26 27 30 28 28 28 30 27 21 22 18 21 25 30 29 30 31 31 31 39 40 40 40
30 26 26 27 26 25 25 28 27 28 29 23 21 19 20 19 23 23 26 29 28 28 29 29 29 30 28
29 29 27 25 24 23 21 23 20 27 28 23 20 21 19 21 21 21 23 24 26 28 28 28 31 32 30
29 28 29 27 27 25 23 21 19 21 25 25 26 25 23 22 21 24 25 26 27 27 25 23 25 27 29
30 29 28 27 26 26 22 20 19 21 21 21 20 19 22 25 30 22 22 22 23 26 25 18 20 26 29
30 28 26 26 30 28 23 22 20 20 20 20 18 14 12 17 25 34 19 19 24 24 23 23 20 23 29

GFSFLT2_sfc_temp_087.txt.gz
Temp
45 45 47 46 45 44 47 46 47 51 52 52 51 52 51 51 51 51 51 52 54 55 56 57 58 59 62
43 41 43 45 44 43 44 46 45 48 50 51 50 51 51 50 49 49 49 50 51 52 53 54 55 56 62
42 42 41 41 39 40 41 41 44 47 50 50 50 50 49 49 48 48 48 49 50 51 51 52 53 55 60
43 41 41 40 40 38 37 39 40 45 47 47 47 47 49 48 47 46 47 47 49 50 50 51 51 52 55
41 40 39 38 37 38 37 37 38 39 39 40 40 41 42 45 44 46 46 47 47 48 49 50 50 50 52
40 40 40 39 38 36 35 33 33 39 36 36 39 37 38 36 44 45 45 46 46 47 48 49 49 50 50
40 41 39 40 38 35 35 34 35 37 36 34 36 35 32 39 44 45 45 45 46 46 47 48 48 49 50
42 43 42 41 40 37 36 36 35 36 37 32 33 30 30 31 44 45 45 45 45 46 46 46 47 47 48
44 45 45 45 40 36 34 34 32 33 34 34 28 28 29 29 32 45 45 45 45 46 44 44 45 44 43
35 39 43 43 45 39 37 34 32 31 33 27 27 28 23 29 30 31 32 44 45 44 43 43 42 36 33
33 31 32 33 32 35 36 35 33 32 30 26 18 22 20 22 28 30 31 32 33 36 42 42 42 38 32
31 30 29 28 27 28 32 30 29 34 31 26 18 20 16 18 23 28 28 29 29 29 29 37 41 41 41
31 30 27 28 27 26 26 28 27 28 29 26 22 20 17 17 21 22 25 27 25 24 26 27 29 29 28
32 30 29 27 26 25 23 23 23 27 28 22 19 20 16 18 19 20 21 21 23 24 26 26 30 30 29
31 30 30 29 28 25 24 21 17 23 25 25 26 25 21 21 19 22 24 23 23 24 26 25 25 27 29
31 30 30 29 28 25 22 20 18 20 21 24 20 18 22 25 29 22 21 22 22 25 25 18 20 26 29
31 30 29 28 30 27 26 24 21 22 22 20 14 13 13 17 25 34 22 23 23 24 24 22 17 22 28

GFSFLT2_sfc_temp_090.txt.gz
Temp
45 45 45 45 45 46 47 46 46 53 53 53 52 52 52 52 51 51 51 52 53 54 55 56 57 58 59
43 42 44 44 43 42 44 46 45 49 51 52 51 51 51 50 50 49 49 50 51 52 53 54 55 56 57
42 42 42 42 40 41 41 40 44 46 50 51 51 50 50 49 49 48 48 48 49 50 51 52 53 54 55
41 40 39 40 40 39 38 39 40 45 47 48 49 49 49 49 48 47 47 47 48 49 50 50 51 52 54
41 40 39 38 38 38 38 37 38 40 40 41 41 41 42 48 45 46 46 46 47 48 49 50 50 50 52
41 41 40 38 38 36 36 34 35 38 37 36 39 37 39 39 44 46 46 46 46 46 47 48 49 50 50
43 39 38 38 36 34 35 35 36 35 35 34 36 36 37 39 44 45 45 45 45 46 46 47 48 49 49
43 41 41 40 40 40 38 36 35 36 37 33 34 34 34 32 41 45 45 45 45 46 46 47 47 48 49
45 45 46 46 42 38 34 34 32 33 35 34 32 32 29 29 31 43 45 45 45 45 45 45 45 43 43
36 40 44 43 44 41 36 34 32 31 34 33 30 29 23 28 29 30 32 43 45 44 43 43 42 34 33
32 32 33 35 38 37 37 37 34 33 34 31 25 23 20 22 27 29 30 31 36 39 43 42 42 37 30
33 32 32 29 28 30 34 34 34 34 35 27 22 23 17 16 23 27 27 28 29 29 28 36 42 42 41
33 33 32 28 27 29 28 30 29 30 31 25 24 18 17 16 20 22 25 27 25 24 25 26 26 26 27
34 34 30 26 25 25 25 27 26 27 28 25 22 22 14 17 18 18 19 21 22 23 25 24 28 29 28
33 31 31 29 28 25 27 24 23 25 26 27 26 24 21 22 18 20 23 21 21 22 24 23 25 28 30
32 31 31 29 29 26 26 26 24 23 24 26 23 20 22 25 29 23 21 22 20 23 23 17 21 28 30
31 30 30 30 30 28 27 26 25 24 22 23 18 15 14 18 24 33 21 19 22 22 22 21 21 24 29

GFSFLT2_sfc_temp_093.txt.gz
Temp
46 45 46 46 46 46 48 47 49 54 54 53 52 53 53 52 52 52 51 52 52 53 55 55 56 57 58
44 43 44 44 43 44 45 46 45 49 52 53 52 52 52 51 50 50 49 50 50 51 52 53 54 55 56
42 43 42 42 41 42 41 40 43 47 50 51 52 51 51 50 50 49 48 48 49 49 50 51 52 53 55
43 41 41 41 41 40 39 39 38 44 47 48 50 51 51 50 49 47 47 47 48 49 49 49 50 51 53
41 40 39 38 39 39 39 35 36 38 39 42 43 43 43 47 46 46 46 47 47 48 48 49 49 50 51
41 42 40 39 37 37 37 35 35 38 38 37 40 38 40 40 44 46 46 46 46 47 47 48 49 50 50
45 44 41 40 37 34 34 34 35 36 36 34 37 36 38 41 45 46 46 46 45 46 46 47 48 49 49
47 45 44 42 41 39 36 34 35 36 37 34 31 32 36 37 43 45 45 45 45 45 46 46 47 48 49
46 46 46 45 42 37 33 35 33 33 35 35 32 31 33 34 35 43 45 45 45 46 45 45 45 43 42
39 43 45 45 45 40 36 35 33 32 34 33 31 32 30 30 30 31 33 44 45 45 44 43 42 32 32
36 36 36 37 40 37 38 37 34 34 34 33 29 29 28 24 28 30 30 32 36 40 43 43 42 36 30
34 34 34 35 34 36 36 35 35 35 36 32 27 25 22 20 24 28 28 29 29 34 28 37 43 42 40
34 34 35 35 32 31 31 32 31 32 33 31 29 19 22 21 23 24 27 27 25 24 24 26 26 26 26
35 35 32 31 31 31 30 30 30 28 30 28 26 23 17 19 21 22 22 23 25 23 24 24 28 29 28
34 32 32 31 30 28 28 28 29 28 27 27 26 25 23 23 20 23 24 22 20 21 23 22 24 26 29
34 32 31 30 29 27 24 26 27 26 27 27 25 22 24 26 30 24 22 22 20 23 23 17 20 25 28
33 32 32 31 30 27 26 25 23 22 23 26 23 20 17 22 25 34 23 19 22 22 21 20 17 21 28

GFSFLT2_sfc_temp_099.txt.gz
Temp
48 48 48 50 51 52 52 53 54 56 56 55 55 55 55 55 55 55 54 54 54 54 54 55 56 56 57
46 45 47 49 49 49 49 50 53 54 55 54 54 54 54 54 54 53 52 52 51 51 52 52 53 54 55
45 44 44 45 44 44 45 46 47 51 55 54 54 53 53 53 52 51 51 50 50 50 50 50 51 52 53
45 43 44 43 45 44 41 42 43 46 49 51 53 53 53 53 52 50 49 49 49 49 49 49 50 50 51
43 42 40 41 43 41 42 41 41 43 43 46 48 49 52 52 49 48 48 48 48 48 48 49 49 49 50
47 46 45 47 46 44 40 38 38 41 41 43 48 45 48 48 48 48 48 48 48 47 47 48 48 49 50
48 47 46 46 45 42 40 43 41 40 42 41 44 43 46 45 47 48 47 47 47 47 46 47 47 48 49
49 51 50 47 45 45 44 41 37 39 44 40 41 42 42 42 46 47 47 47 46 46 46 47 46 46 48
47 48 48 47 47 42 38 39 34 35 37 37 35 36 38 39 41 46 47 46 46 46 46 45 45 43 45
42 44 46 46 45 46 41 39 35 33 36 36 34 35 34 37 39 40 44 46 46 46 45 45 43 44 46
39 39 40 42 42 44 43 42 36 36 37 36 33 34 35 32 35 37 39 42 44 46 45 44 43 42 43
37 37 37 38 38 38 40 39 39 37 39 37 33 35 33 32 32 34 37 39 41 42 41 40 43 42 41
37 37 38 39 35 33 33 34 33 35 39 34 35 34 36 34 31 31 33 36 38 39 39 39 40 40 40
37 37 35 34 34 33 32 33 32 30 32 34 33 34 32 33 33 31 36 32 36 38 38 38 39 40 40
36 33 33 33 33 33 33 33 31 29 28 29 31 32 33 30 30 34 33 32 34 34 35 35 37 38 39
34 34 33 33 32 32 32 33 31 30 29 28 28 30 31 32 34 32 32 32 31 33 35 33 34 36 38
33 32 32 32 33 31 31 32 32 31 30 29 29 31 28 29 32 35 32 31 30 30 34 34 33 35 37

GFSFLT2_sfc_temp_102.txt.gz
Temp
51 51 50 52 52 54 54 56 56 57 58 57 56 57 57 57 57 57 57 56 56 56 57 57 56 57 57
51 47 48 50 51 51 50 51 53 55 56 55 55 55 55 55 55 55 55 54 54 54 54 54 54 54 55
52 48 48 47 45 46 47 47 49 52 55 54 54 54 54 54 54 54 53 52 51 51 51 51 52 52 53
51 46 46 45 47 45 43 44 45 47 52 53 53 53 54 54 53 51 50 50 50 50 50 50 50 50 51
47 45 43 42 44 45 46 45 43 44 45 47 50 51 52 53 51 49 49 49 49 50 50 49 49 49 50
48 47 47 46 50 45 43 40 39 42 44 43 47 47 49 52 51 50 49 49 49 49 48 48 48 49 49
44 46 48 50 51 44 44 45 46 42 45 41 43 43 47 50 50 49 48 48 48 48 48 47 47 48 48
49 48 48 51 50 49 47 47 40 41 45 39 41 41 44 46 48 48 48 48 48 47 47 47 47 46 46
47 47 47 48 49 47 41 39 37 35 40 37 37 37 41 43 46 48 47 47 47 47 47 47 46 44 47
45 45 48 47 48 47 45 41 41 33 37 35 34 36 34 39 39 41 44 47 46 47 47 46 45 46 47
44 42 43 43 45 46 46 43 41 39 40 38 36 34 35 31 36 38 40 43 44 45 46 45 44 44 46
41 40 39 40 40 41 40 39 39 37 40 37 34 37 33 32 32 35 37 40 42 42 43 45 44 43 42
37 37 39 40 37 33 34 34 34 35 39 34 36 36 37 34 32 33 33 36 40 40 39 40 41 42 39
35 35 38 36 36 34 34 34 33 32 32 34 34 36 34 36 35 34 37 33 38 40 40 40 42 42 43
34 33 34 35 35 34 33 34 33 31 29 30 32 33 34 34 33 35 35 36 37 37 37 37 39 41 43
34 33 32 33 33 32 32 34 33 32 29 28 29 30 31 33 36 34 34 35 35 35 37 34 35 40 42
34 32 32 33 33 32 32 32 32 32 30 29 30 32 30 30 32 37 33 34 32 32 36 36 35 36 40